INTELSAT 4-F4 1 05775U 72003A 21061.20201618 -.00000173 00000-0 00000-0 0 9998 2 05775 11.1435 313.4853 0005405 72.3498 195.9976 0.99837859118098 ATLAS CENTAUR R/B 1 05816U 72003B 21061.45189834 -.00000106 00000-0 -19073-3 0 9996 2 05816 27.8645 225.0653 7169046 318.3662 7.5703 2.20881746395635